This is the latest recevied weather packets stored in our database for station/object DJ6OI-23. If no packets are shown the sender has not sent any weather packets the latest 10 day(s).
| Time | Temp. | Humidity | Pressure | Rain* | Wind** | Luminosity | Snow |
|---|---|---|---|---|---|---|---|
| 1777166850 | 3.89° C | 84% | 1001.5 hPa | 0 mm | - | - | - |
| 1777165915 | 4.44° C | 83% | 1001.4 hPa | 0 mm | - | - | - |
| 1777164980 | 4.44° C | 82% | 1001.3 hPa | 0 mm | - | - | - |
| 1777164045 | 4.44° C | 81% | 1001.1 hPa | 0 mm | - | - | - |
| 1777163110 | 4.44° C | 80% | 1001 hPa | 0 mm | - | - | - |
| 1777162175 | 4.44° C | 79% | 1000.9 hPa | 0 mm | - | - | - |
| 1777161240 | 5° C | 79% | 1000.7 hPa | 0 mm | - | - | - |
| 1777160305 | 5.56° C | 78% | 1000.5 hPa | 0 mm | - | - | - |
| 1777159370 | 6.11° C | 78% | 1000.5 hPa | 0 mm | - | - | - |
| 1777158435 | 6.11° C | 77% | 1000.4 hPa | 0 mm | - | - | - |
| 1777157500 | 6.67° C | 75% | 1000.3 hPa | 0 mm | - | - | - |
| 1777156566 | 6.67° C | 73% | 1000.1 hPa | 0 mm | - | - | - |
| 1777155631 | 7.22° C | 72% | 999.8 hPa | 0 mm | - | - | - |
| 1777154696 | 7.78° C | 71% | 999.5 hPa | 0 mm | - | - | - |
| 1777153761 | 8.33° C | 68% | 999.3 hPa | 0 mm | - | - | - |
| 1777152826 | 8.89° C | 66% | 998.8 hPa | 0 mm | - | - | - |
| 1777151891 | 9.44° C | 63% | 998.7 hPa | 0 mm | - | - | - |
| 1777150956 | 9.44° C | 60% | 998.5 hPa | 0 mm | - | - | - |
| 1777150021 | 9.44° C | 56% | 998.2 hPa | 0 mm | - | - | - |
| 1777149086 | 9.44° C | 54% | 997.9 hPa | 0 mm | - | - | - |
| 1777148151 | 10° C | 51% | 997.5 hPa | 0 mm | - | - | - |
| 1777147216 | 10.56° C | 49% | 997.2 hPa | 0 mm | - | - | - |
| 1777146281 | 11.11° C | 49% | 997.3 hPa | 0 mm | - | - | - |
| 1777145347 | 11.11° C | 46% | 997.1 hPa | 0 mm | - | - | - |
| 1777144412 | 11.67° C | 44% | 996.9 hPa | 0 mm | - | - | - |
* Rain latest hour (hover to see other rain measurements)
** Current wind speed in m/s (hover to see current wind gust speed)